Regional Weather Roundup
Issued by NWS

Home | Current Version | Previous Version | Graphics & Text | Print | Product List | Glossary On
Versions: 1 2 3 4 5 6 7 8 9 10 11 12 13 14 15 16 17 18 19 20 21 22 23 24 25 26 27 28 29 30 31 32 33 34 35 36 37 38 39 40 41 42 43 44 45 46 47 48 49 50
000
ASUS43 KOAX 042210
RWRNE

WEATHER ROUNDUP FOR NEBRASKA
NATIONAL WEATHER SERVICE OMAHA NE
500 PM CDT FRI SEP 04 2015

NOTES: SATELLITE DATA IS BEING USED TO AUGMENT CLOUD COVER ABOVE
       12000 FEET.
       "FAIR" INDICATES FEW OR NO CLOUDS BELOW 12,000 FEET WITH NO
       SIGNIFICANT WEATHER AND/OR OBSTRUCTIONS TO VISIBILITY.

  * THESE STATIONS DO NOT REPORT WEATHER SUCH AS RAIN...SNOW OR FOG.

NEZ001>004-019>022-054>056-042300-
NEBRASKA PANHANDLE

CITY           SKY/WX    TMP DP  RH WIND       PRES   REMARKS
SCOTTSBLUFF    PTSUNNY   92  41  17 E9        29.86F
ALLIANCE       MOSUNNY   93  43  17 SE7       29.86F
CHADRON        CLOUDY    92  45  19 E3        29.80F
KIMBALL        MOSUNNY   89  39  16 S10       29.91F
SIDNEY         MOSUNNY   94  43  17 S15G23    29.90F HX  90
$$

NEZ057>060-069>072-079>082-042300-
SOUTHWEST NEBRASKA

CITY           SKY/WX    TMP DP  RH WIND       PRES   REMARKS
NORTH PLATTE   SUNNY     93  54  26 S10       29.82F HX  91
IMPERIAL       SUNNY     93  46  19 SW3       29.85F
LEXINGTON      MOSUNNY   93  61  34 SE13      29.81F HX  93
MCCOOK         SUNNY     97  56  25 NE7       29.81F HX  95
OGALLALA       SUNNY     92  49  23 CALM      29.84F
$$

NEZ005>010-023>029-035>040-094-042300-
NORTH CENTRAL NEBRASKA

CITY           SKY/WX    TMP DP  RH WIND       PRES   REMARKS
VALENTINE      SUNNY     93  51  23 VRB5      29.78F HX  90
AINSWORTH      SUNNY     91  61  36 SE9       29.80F HX  91
BROKEN BOW     SUNNY     91  63  39 S12       29.82F HX  92
O`NEILL        MOSUNNY   91  64  39 S18       29.81S HX  92
ORD            PTSUNNY   91  64  40 S16G23    29.80F HX  92
THEDFORD       SUNNY     93  57  29 SE8       29.82F HX  92
$$

NEZ041-046>049-061>064-073>077-083>087-042300-
SOUTH CENTRAL NEBRASKA

CITY           SKY/WX    TMP DP  RH WIND       PRES   REMARKS
GRAND ISLAND   PTSUNNY   95  64  35 S24G30    29.82S HX  97
AURORA         PTSUNNY   92  65  41 S15G24    29.82S HX  94
HASTINGS       PTSUNNY   95  64  35 S14G22    29.81F HX  97
HEBRON         MOSUNNY   92  62  35 S15G26    29.84F HX  92
HOLDREGE       SUNNY     95  55  25 S14G21    29.81F HX  93
KEARNEY *      MOSUNNY   97  63  32 S15G24    29.80F HX  98
YORK           PTSUNNY   91  68  46 S16G25    29.83F HX  95
$$

NEZ011>018-030>034-042>045-042300-
NORTHEAST NEBRASKA

CITY           SKY/WX    TMP DP  RH WIND       PRES   REMARKS
NORFOLK        SUNNY     91  69  48 S18       29.82S HX  96
ALBION         PTSUNNY   87  68  52 S12G18    29.82S HX  90
BLAIR          MOSUNNY   86  67  53 SE10G17   29.87S
COLUMBUS *     MOSUNNY   90  70  51 SE9       29.82S HX  95
FREMONT        MOSUNNY   90  68  48 SE9       29.85S HX  94
TEKAMAH        SUNNY     88  73  61 SE14G22   29.84F HX  95
WAYNE          MOSUNNY   86  75  68 S16       29.84S HX  95
$$

NEZ050>053-065>068-078-088>093-042300-
SOUTHEAST NEBRASKA

CITY           SKY/WX    TMP DP  RH WIND       PRES   REMARKS
LINCOLN        MOSUNNY   91  67  44 S21       29.84S HX  94
OMAHA EPPLEY   MOSUNNY   89  71  55 SE20      29.86F HX  95
BEATRICE       SUNNY     91  65  42 S17G25    29.85S HX  93
FALLS CITY     SUNNY     92  66  42 S16G24    29.89F HX  94
NEBRASKA CITY  MOSUNNY   91  58  32 S18       29.88S
PLATTSMOUTH    MOSUNNY   87  67  50 SE9G20    29.87S HX  90
$$

NEZ044-045-051>053-067-042300-
OMAHA AREA

CITY           SKY/WX    TMP DP  RH WIND       PRES   REMARKS
OMAHA EPPLEY   MOSUNNY   89  71  55 SE20      29.86F HX  95
BLAIR          MOSUNNY   86  67  53 SE10G17   29.87S
FREMONT        MOSUNNY   90  68  48 SE9       29.85S HX  94
MILLARD        MOSUNNY   90  72  55 SE10      29.85S HX  97
OFFUTT AFB     MOSUNNY   88  71  57 SE15      29.85F HX  94
PLATTSMOUTH    MOSUNNY   87  67  50 SE9G20    29.87S HX  90
WAHOO          FAIR      88  72  58 SE8       29.84F HX  94
$$




USA.gov is the U.S. government's official web portal to all federal, state and local government web resources and services.